Home   Weather   La Estación   Past weeks
Flag for Spain

Past Weather in La Estación, Madrid, Spain — Yesterday and Last 2 Weeks

Now
79 °F

Passing clouds.


Feels Like: 79 °F
Forecast: 98 / 65 °F
Wind: 3 mph from North

Location: Madrid / Cuatro Vientos

Current Time: Aug 5, 2020 at 1:34:32 am

Latest Report: Aug 5, 2020 at 12:30 am


Visibility: N/A

Pressure: 29.98 "Hg

Humidity: 32%

Dew Point: 46 °F

Location of La EstaciónLocation

Past Weather in La Estación — Graph

°F

La Estación Temperature Yesterday

Maximum temperature yesterday: 91 °F (at 3:30 pm)
Minimum temperature yesterday: 66 °F (at 7:30 am)
Average temperature yesterday: 80 °F

High & Low Weather Summary for the Past Weeks

 TemperatureHumidityPressure
High104 °F (Jul 26, 4:00 pm)78% (Jul 22, 6:00 am)30.12 "Hg (Jul 22, 6:00 am)
Low66 °F (Aug 4, 7:30 am)8% (Aug 1, 4:00 pm)29.89 "Hg (Jul 30, 6:00 pm)
Average86 °F31%30.03 "Hg
* Reported Jul 21 12:30 am — Aug 5 12:30 am, La Estación. Weather by CustomWeather, © 2020

Note: Actual official high and low records may vary slightly from our data, if they occured in-between our weather recording intervals... More about our weather records

La Estación Weather History for the Previous 24 Hours

Scroll right to see more
 ConditionsComfort  
Time TempWeatherWind HumidityBarometerVisibility
12:30 am
Wed, Aug 5
79 °FPassing clouds.3 mph32%29.98 "HgN/A
12:00 am82 °FPassing clouds.3 mph28%29.98 "HgN/A
11:30 pm
Tue, Aug 4
81 °FClear.2 mph28%29.98 "Hg10 mi
11:00 pm82 °FPassing clouds.3 mph28%29.98 "HgN/A
10:30 pm82 °FClear.1 mph26%29.95 "Hg10 mi
10:00 pm84 °FPassing clouds.5 mph27%29.95 "HgN/A
9:30 pm86 °FPassing clouds.7 mph25%29.95 "HgN/A
9:00 pm88 °FPassing clouds.5 mph24%29.95 "HgN/A
8:30 pm90 °FPassing clouds.6 mph22%29.95 "HgN/A
8:00 pm91 °FSunny.3 mph23%29.95 "Hg10 mi
7:30 pm91 °FPassing clouds.6 mph21%29.95 "HgN/A
7:00 pm91 °FPassing clouds.3 mph21%29.95 "HgN/A
6:30 pm91 °FSunny.5 mph21%29.95 "Hg10 mi
6:00 pm91 °FSunny.5 mph21%29.95 "Hg10 mi
5:30 pm91 °FPassing clouds.6 mph21%29.95 "HgN/A
5:00 pm90 °FSunny.5 mph22%29.98 "Hg10 mi
4:30 pm91 °FSunny.3 mph21%29.98 "Hg10 mi
4:00 pm90 °FPassing clouds.6 mph24%29.98 "HgN/A
3:30 pm91 °FSunny.3 mph21%30.01 "Hg10 mi
3:00 pm88 °FPassing clouds.6 mph25%30.01 "HgN/A
2:30 pm86 °FSunny.3 mph25%30.04 "Hg10 mi
2:00 pm86 °FSunny.5 mph27%30.04 "Hg10 mi
1:30 pm84 °FSunny.5 mph29%30.04 "Hg10 mi
1:00 pm82 °FSunny.2 mph32%30.07 "Hg10 mi
12:30 pm82 °FSunny.3 mph30%30.07 "Hg10 mi
12:00 pm79 °FPassing clouds.6 mph37%30.07 "HgN/A
11:30 am77 °FPassing clouds.6 mph39%30.07 "HgN/A
11:00 am75 °FPassing clouds.7 mph41%30.07 "HgN/A
10:30 am73 °FPassing clouds.7 mph44%30.07 "HgN/A
10:00 am72 °FPassing clouds.7 mph47%30.07 "HgN/A
9:30 am70 °FPassing clouds.8 mph50%30.07 "HgN/A
9:00 am70 °FPassing clouds.8 mph50%30.07 "HgN/A
8:30 am68 °FPassing clouds.6 mph53%30.07 "HgN/A
8:00 am68 °FPassing clouds.9 mph53%30.07 "HgN/A
7:30 am66 °FPassing clouds.6 mph56%30.07 "HgN/A
7:00 am68 °FPassing clouds.6 mph53%30.07 "HgN/A
6:30 am68 °FPassing clouds.6 mph53%30.07 "HgN/A
6:00 am68 °FPassing clouds.7 mph53%30.07 "HgN/A
5:30 am68 °FPassing clouds.9 mph53%30.04 "HgN/A
5:00 am70 °FClear.7 mph50%30.04 "Hg10 mi
4:30 am70 °FPassing clouds.6 mph50%30.04 "HgN/A
4:00 am72 °FPassing clouds.6 mph47%30.04 "HgN/A
3:30 am72 °FPassing clouds.7 mph47%30.04 "HgN/A
2:30 am75 °FPassing clouds.8 mph41%30.04 "HgN/A
2:00 am75 °FPassing clouds.9 mph39%30.04 "HgN/A
1:30 am77 °FPassing clouds.7 mph36%30.04 "HgN/A
1:00 am77 °FPassing clouds.5 mph34%30.04 "HgN/A
Weather by CustomWeather, © 2020

See weather overview